When you browse on this site, cookies collect data to enhance your experience and personalize the content and advertising you see.
Visit our Privacy Policy to learn more. By continuing to use the site, you agree to this use of cookies and data.
  • In Switzerland
  • List of Countries
  • For 7 days
  • Water Temperature
  • Weather Map
  • Weather Widgets
  • user-avatar
    Login

    Hourly Weather Ganja

    Today, 19 October, Saturday

    Time Temperature Precipitation Wind Pressure Humidity
    00:00 +19°C° 0 mm 1 mps 727 mmHg 63%
    01:00 +19°C° 0 mm 1 mps 727 mmHg 64%
    02:00 +18°C° 0 mm 1 mps 727 mmHg 64%
    03:00 +18°C° 0 mm 1 mps 727 mmHg 65%
    04:00 +18°C° 0 mm 1 mps 727 mmHg 64%
    05:00 +18°C° 0 mm 1 mps 727 mmHg 64%
    06:00 +16°C° 0 mm 1 mps 727 mmHg 63%
    07:00 +19°C° 0 mm 1 mps 727 mmHg 58%
    08:00 +21°C° 0 mm 1 mps 727 mmHg 54%
    09:00 +22°C° 0 mm 1 mps 728 mmHg 49%
    10:00 +23°C° 0 mm 1 mps 727 mmHg 48%
    11:00 +24°C° 0 mm 2 mps 727 mmHg 46%
    12:00 +25°C° 0 mm 2 mps 727 mmHg 44%
    13:00 +26°C° 0.1 mm 2 mps 727 mmHg 43%
    14:00 +26°C° 0.1 mm 2 mps 727 mmHg 42%
    15:00 +26°C° 0.1 mm 2 mps 726 mmHg 40%
    16:00 +25°C° 0 mm 2 mps 726 mmHg 45%
    17:00 +24°C° 0 mm 2 mps 727 mmHg 50%
    18:00 +21°C° 0 mm 2 mps 727 mmHg 54%
    19:00 +21°C° 0 mm 2 mps 727 mmHg 56%
    20:00 +21°C° 0 mm 2 mps 727 mmHg 57%
    21:00 +21°C° 0 mm 1 mps 728 mmHg 58%
    22:00 +19°C° 0 mm 2 mps 728 mmHg 63%
    23:00 +19°C° 0 mm 2 mps 728 mmHg 67%

    Tomorrow, 20 October, Sunday

    Time Temperature Precipitation Wind Pressure Humidity
    00:00 +18°C° 0 mm 2 mps 728 mmHg 71%
    01:00 +17°C° 0 mm 2 mps 728 mmHg 73%
    02:00 +17°C° 0 mm 2 mps 728 mmHg 76%
    03:00 +16°C° 0 mm 1 mps 728 mmHg 78%
    04:00 +16°C° 0 mm 1 mps 728 mmHg 80%
    05:00 +16°C° 0 mm 1 mps 729 mmHg 82%
    06:00 +15°C° 0 mm 1 mps 729 mmHg 84%
    07:00 +16°C° 0 mm 1 mps 729 mmHg 79%
    08:00 +19°C° 0 mm 1 mps 729 mmHg 74%
    09:00 +20°C° 0 mm 1 mps 729 mmHg 69%
    10:00 +20°C° 0 mm 2 mps 729 mmHg 66%
    11:00 +21°C° 0 mm 2 mps 729 mmHg 62%
    12:00 +23°C° 0 mm 2 mps 729 mmHg 59%
    13:00 +24°C° 0.1 mm 2 mps 729 mmHg 55%
    14:00 +24°C° 0.1 mm 3 mps 728 mmHg 50%
    15:00 +25°C° 0.1 mm 3 mps 728 mmHg 46%
    16:00 +24°C° 0 mm 3 mps 728 mmHg 50%
    17:00 +21°C° 0 mm 2 mps 728 mmHg 53%
    18:00 +20°C° 0 mm 2 mps 729 mmHg 57%
    19:00 +20°C° 0 mm 2 mps 729 mmHg 58%
    20:00 +19°C° 0 mm 2 mps 729 mmHg 60%
    21:00 +19°C° 0 mm 2 mps 730 mmHg 62%
    22:00 +18°C° 0 mm 2 mps 730 mmHg 65%
    23:00 +17°C° 0 mm 2 mps 730 mmHg 69%

    Day after tomorrow, 21 October, Monday

    Time Temperature Precipitation Wind Pressure Humidity
    00:00 +17°C° 0 mm 3 mps 730 mmHg 73%
    01:00 +16°C° 0 mm 2 mps 730 mmHg 75%
    02:00 +16°C° 0 mm 2 mps 730 mmHg 77%
    03:00 +15°C° 0 mm 1 mps 729 mmHg 79%
    04:00 +15°C° 0 mm 1 mps 730 mmHg 81%
    05:00 +14°C° 0 mm 1 mps 730 mmHg 82%
    06:00 +13°C° 0 mm 0 mps 730 mmHg 83%
    07:00 +15°C° 0 mm 1 mps 730 mmHg 79%
    08:00 +16°C° 0 mm 1 mps 730 mmHg 74%
    09:00 +18°C° 0 mm 1 mps 730 mmHg 69%
    10:00 +18°C° 0 mm 2 mps 730 mmHg 65%
    11:00 +20°C° 0 mm 2 mps 730 mmHg 61%
    12:00 +21°C° 0 mm 2 mps 730 mmHg 57%
    13:00 +21°C° 0 mm 2 mps 729 mmHg 52%
    14:00 +23°C° 0 mm 2 mps 729 mmHg 47%
    15:00 +23°C° 0 mm 2 mps 729 mmHg 42%
    16:00 +21°C° 0 mm 2 mps 729 mmHg 43%
    17:00 +20°C° 0 mm 2 mps 729 mmHg 43%
    18:00 +19°C° 0 mm 2 mps 729 mmHg 44%
    19:00 +18°C° 0 mm 2 mps 729 mmHg 44%
    20:00 +18°C° 0 mm 2 mps 729 mmHg 45%
    21:00 +17°C° 0 mm 2 mps 730 mmHg 46%
    22:00 +17°C° 0 mm 2 mps 729 mmHg 49%
    23:00 +16°C° 0 mm 2 mps 729 mmHg 53%

    22 October, Tuesday

    Time Temperature Precipitation Wind Pressure Humidity
    00:00 +16°C° 0 mm 2 mps 729 mmHg 56%
    01:00 +15°C° 0 mm 2 mps 729 mmHg 60%
    02:00 +14°C° 0 mm 1 mps 729 mmHg 64%
    03:00 +14°C° 0 mm 1 mps 729 mmHg 67%
    04:00 +14°C° 0 mm 1 mps 729 mmHg 69%
    05:00 +13°C° 0 mm 1 mps 729 mmHg 70%
    06:00 +12°C° 0 mm 0 mps 729 mmHg 71%
    07:00 +14°C° 0 mm 1 mps 729 mmHg 66%
    08:00 +16°C° 0 mm 1 mps 730 mmHg 61%
    09:00 +18°C° 0 mm 1 mps 730 mmHg 55%
    10:00 +18°C° 0 mm 2 mps 729 mmHg 52%
    11:00 +19°C° 0 mm 2 mps 729 mmHg 48%
    12:00 +20°C° 0 mm 2 mps 729 mmHg 44%
    13:00 +21°C° 0 mm 2 mps 729 mmHg 42%
    14:00 +21°C° 0 mm 3 mps 729 mmHg 40%
    15:00 +22°C° 0 mm 3 mps 728 mmHg 38%
    16:00 +21°C° 0 mm 2 mps 729 mmHg 42%
    17:00 +19°C° 0 mm 2 mps 729 mmHg 45%
    18:00 +18°C° 0 mm 2 mps 729 mmHg 48%
    19:00 +18°C° 0 mm 2 mps 729 mmHg 50%
    20:00 +17°C° 0 mm 2 mps 729 mmHg 51%
    21:00 +18°C° 0 mm 1 mps 730 mmHg 52%
    22:00 +16°C° 0 mm 1 mps 730 mmHg 56%
    23:00 +16°C° 0 mm 2 mps 730 mmHg 60%

    23 October, Wednesday

    Time Temperature Precipitation Wind Pressure Humidity
    00:00 +15°C° 0 mm 2 mps 729 mmHg 64%
    01:00 +15°C° 0 mm 1 mps 730 mmHg 67%
    02:00 +14°C° 0 mm 1 mps 730 mmHg 71%
    03:00 +14°C° 0 mm 1 mps 730 mmHg 75%
    04:00 +13°C° 0 mm 1 mps 729 mmHg 76%
    05:00 +13°C° 0 mm 1 mps 729 mmHg 78%
    06:00 +12°C° 0 mm 0 mps 729 mmHg 79%
    07:00 +14°C° 0 mm 1 mps 730 mmHg 73%
    08:00 +15°C° 0 mm 1 mps 730 mmHg 68%
    09:00 +18°C° 0 mm 1 mps 730 mmHg 62%
    10:00 +19°C° 0 mm 1 mps 729 mmHg 58%
    11:00 +19°C° 0 mm 2 mps 729 mmHg 55%
    12:00 +20°C° 0 mm 2 mps 729 mmHg 51%
    13:00 +20°C° 0 mm 2 mps 729 mmHg 50%
    14:00 +21°C° 0 mm 2 mps 728 mmHg 48%
    15:00 +21°C° 0 mm 2 mps 728 mmHg 46%
    16:00 +20°C° 0 mm 2 mps 728 mmHg 51%
    17:00 +20°C° 0 mm 1 mps 728 mmHg 55%
    18:00 +19°C° 0 mm 1 mps 728 mmHg 60%
    19:00 +18°C° 0 mm 1 mps 729 mmHg 62%
    20:00 +18°C° 0 mm 1 mps 729 mmHg 64%
    21:00 +16°C° 0 mm 1 mps 729 mmHg 66%
    22:00 +16°C° 0 mm 1 mps 729 mmHg 68%
    23:00 +16°C° 0 mm 1 mps 729 mmHg 69%

    24 October, Thursday

    Time Temperature Precipitation Wind Pressure Humidity
    00:00 +15°C° 0 mm 1 mps 728 mmHg 71%
    01:00 +15°C° 0 mm 1 mps 728 mmHg 73%
    02:00 +14°C° 0 mm 1 mps 728 mmHg 74%
    03:00 +14°C° 0 mm 1 mps 728 mmHg 76%
    04:00 +14°C° 0 mm 1 mps 728 mmHg 76%
    05:00 +14°C° 0 mm 1 mps 728 mmHg 76%
    06:00 +13°C° 0 mm 1 mps 728 mmHg 76%
    07:00 +15°C° 0 mm 1 mps 728 mmHg 70%
    08:00 +16°C° 0 mm 1 mps 728 mmHg 65%
    09:00 +19°C° 0 mm 1 mps 729 mmHg 59%
    10:00 +20°C° 0 mm 1 mps 728 mmHg 56%
    11:00 +20°C° 0 mm 2 mps 728 mmHg 52%
    12:00 +21°C° 0 mm 2 mps 728 mmHg 49%
    13:00 +21°C° 0 mm 2 mps 728 mmHg 48%
    14:00 +23°C° 0 mm 2 mps 727 mmHg 47%
    15:00 +23°C° 0 mm 2 mps 727 mmHg 46%
    16:00 +21°C° 0 mm 2 mps 727 mmHg 51%
    17:00 +20°C° 0 mm 2 mps 728 mmHg 56%
    18:00 +19°C° 0 mm 1 mps 728 mmHg 61%
    19:00 +19°C° 0 mm 1 mps 728 mmHg 63%
    20:00 +19°C° 0 mm 1 mps 728 mmHg 65%
    21:00 +18°C° 0 mm 1 mps 728 mmHg 67%
    22:00 +18°C° 0 mm 1 mps 728 mmHg 70%
    23:00 +16°C° 0 mm 1 mps 728 mmHg 72%
    Show more